sat.trackr.live / text

‹ back to catalog

DEAR-5

NORAD 67070 · 2025-296B

PAYLOAD ACTIVE UNKNOWN

§ Identity

Operator
Country
PRC
Launch date
2025-12-13
Launch site
JSC
Launch vehicle
Mass (kg)
RCS (m²)

External: N2YO · Heavens-Above · Gunter

§ Orbital elements

Epoch: 2026-09-20T09:02:23.333280Z

Period
93.92 min
Inclination
41.3608°
Eccentricity
0.0011465
Mean motion
15.33206224 rev/d
Perigee alt
458.4 km
Apogee alt
474.1 km
Semi-major
6,844.4 km
B*
1.8769e-4
RAAN
291.8379°
Arg perigee
97.7324°
Mean anomaly
262.4805°
Rev number
4,276

§ Raw data

DEAR-51 67070U 25296B   26263.37665895  .00005929  00000+0  18769-3 0  99902 67070  41.3608 291.8379 0011465  97.7324 262.4805 15.33206224 42766

JSON: /api/v1/satellites/67070 · /tle

For live sub-satellite position, see the globe view (requires WebGL).

§ Visibility from observer

Set your observer location to see the next 7 days of passes ≥ 10°. The values pass through the URL so the page stays shareable.

No JS? Fill the form by hand. The geolocation button needs JavaScript.